Presure
203 194 187 190 207 207 203 188 181 208 205 197 183 172 172 190 170 173 180 185 183 181 174 177 201 191 193 184 190 192 149 199 190 208 198 174 193 149 190 201 188 172 213
199 199 201 201 198 193 196 208 207 201 195 182 176 186 184 179 175 187 182 181 178 180 184 183 194 200 198 191 188 188 188 184 185 188 137 190 150 183 178 167 178 207 177
193 192 190 187 199 199 197 195 191 186 177 180 183 182 177 180 185 181 184 183 202 193 198 198 194 190 190 188 184 183 182 181 179 174 176 163 173 186 145 188 165 188 181
185 182 180 180 181 181 181 180 176 185 187 187 205 204 191 204 202 210 204 208 205 202 198 194 191 191 188 183 183 181 179 178 179 178 176 147 181 147 182 206 153 203 164
202 200 200 201 202 201 199 199 202 205 206 207 219 223 230 217 220 213 209 202 197 195 193 186 191 191 192 192 189 184 181 178 178 175 177 183 168 138 208 152 141 200 152
190 191 193 193 193 195 202 218 233 227 233 230 225 219 220 219 213 212 207 208 208 205 202 195 191 198 194 190 186 184 182 181 180 179 177 188 188 191 181 167 200 150 187
183 179 177 177 176 177 178 178 177 217 226 198 181 177 189 196 197 182 186 195 188 184 184 177 177 184 183 181 174 179 181 181 172 181 166 185 188 179 185 205 182 151 170
190 191 183 186 190 189 185 185 180 181 187 189 186 180 175 184 183 185 188 188 190 186 181 178 183 184 183 181 180 181 184 188 188 175 183 187 178 202 154 197 200 203 157
192 190 190 191 192 192 195 197 196 193 189 187 184 186 184 185 182 183 185 187 185 188 188 186 191 191 186 179 188 177 186 202 164 169 174 175 206 203 203 169 180 182 200
185 186 189 189 187 187 190 190 190 191 191 189 188 190 186 186 183 182 184 187 187 190 189 191 193 204 207 208 203 202 193 193 194 194 204 188 196 205 204 194 202 210 201
193 197 196 194 194 194 193 192 193 194 196 199 198 198 196 191 198 201 203 191 197 203 201 202 208 207 203 198 196 194 192 199 198 212 230 229 228 194 208 218 198 210 204
201 202 200 200 201 203 204 205 205 204 202 203 201 200 200 203 212 212 205 204 197 200 205 209 207 204 201 200 199 196 200 202 205 230 248 230 229 230 247 194 247 220 201
192 194 189 193 183 194 193 195 200 194 202 194 194 201 209 208 207 201 201 207 214 218 214 217 216 206 199 221 215 228 236 236 239 234 248 252 247 246 233 250 267 244 265
201 206 207 194 205 202 194 205 231 228 222 217 218 221 221 217 211 193 225 223 217 218 235 238 232 236 238 237 237 244 235 250 248 256 228 230 237 253 231 257 246 243 254
219 217 220 221 220 214 223 224 202 218 219 200 208 214 216 221 231 240 243 243 246 225 226 248 246 239 244 235 256 250 244 234 241 254 246 242 294 302 330 292 317 326 268
224 226 223 214 218 225 220 221 231 232 220 216 224 233 226 233 235 243 243 215 230 244 242 234 260 257 252 254 263 241 259 239 248 308 305 265 253 261 326 282 268 268 288
234 210 220 226 217 221 220 217 234 235 234 223 245 242 235 244 226 246 245 246 249 245 252 262 273 280 267 282 284 283 294 269 263 292 293 363 347 311 293 332 369 369 372
227 223 221 227 231 234 232 226 235 234 226 239 245 250 230 251 242 260 273 282 272 271 271 252 235 248 250 243 317 326 345 357 348 348 346 348 348 347 347 345 344 346 350
232 241 244 221 217 227 231 234 229 229 238 237 271 268 264 277 273 276 271 269 256 264 242 262 369 348 355 353 346 352 344 340 344 338 336 333 334 335 336 339 332 335 338
249 230 233 254 237 237 245 274 265 264 268 274 275 266 270 248 234 235 243 387 374 360 355 359 341 343 350 336 315 338 331 330 325 322 324 327 333 327 320 318 325 450 451
232 229 244 253 264 273 261 273 269 243 241 228 236 292 298 379 353 359 348 355 353 349 347 338 337 334 331 326 317 323 320 317 314 306 321 319 315 307 415 407 401 401 409
261 262 260 257 250 231 228 317 320 396 401 372 380 383 379 373 366 361 359 348 344 338 339 326 309 318 317 318 312 311 313 312 297 316 304 297 337 383 373 373 368 366 367
342 352 349 350 354 346 346 334 396 392 386 378 376 356 326 355 351 346 334 330 335 326 310 307 307 307 310 307 312 310 306 295 317 306 286 369 362 357 352 353 356 355 354
339 333 339 353 399 393 386 384 377 375 371 366 360 352 348 339 339 335 331 330 311 299 302 289 306 283 302 306 307 306 301 309 306 280 379 355 341 338 337 344 348 352 351
317 355 365 382 380 379 377 369 366 362 355 351 346 341 335 330 327 326 320 265 271 280 294 295 299 285 299 305 307 302 282 318 304 283 368 336 336 326 323 328 336 347 351
325 329 377 355 366 363 359 355 352 350 347 342 340 331 329 331 326 299 305 265 314 310 305 306 302 302 303 305 302 301 301 306 278 366 355 333 326 319 317 321 336 338 348
Wind_Speed
51 54 54 55 53 52 52 53 54 48 48 50 51 53 53 47 52 51 49 48 49 49 51 50 45 46 44 47 43 41 50 39 42 40 43 51 42 60 42 46 51 49 41
51 51 52 53 54 54 52 50 50 50 51 55 56 52 51 52 53 50 52 52 52 52 52 52 47 44 44 45 45 44 44 44 45 46 56 49 57 47 48 57 51 48 55
51 51 52 55 54 54 54 53 53 55 59 58 57 56 56 55 54 55 55 55 50 52 49 47 48 49 48 48 50 50 50 51 51 52 52 53 52 55 60 52 62 56 58
53 55 56 58 59 61 61 60 59 58 58 60 56 56 58 54 53 50 51 48 48 47 49 50 51 51 52 54 54 56 57 58 57 58 57 55 59 56 59 56 62 56 58
51 53 54 55 56 56 59 60 60 58 57 57 54 51 47 49 47 48 49 51 53 54 55 59 57 57 57 57 58 60 62 64 65 65 64 64 64 58 61 64 63 58 67
53 52 53 54 55 56 56 56 54 55 52 50 49 48 47 47 49 49 50 51 53 54 56 57 58 57 59 61 63 67 69 71 71 71 71 70 70 70 70 65 67 68 67
58 58 61 64 63 64 64 65 66 56 52 57 62 63 59 54 55 62 60 57 62 64 65 69 69 68 70 72 71 74 75 76 73 77 70 77 72 76 76 71 74 68 71
63 64 67 66 65 66 67 67 69 69 65 64 65 67 69 65 66 66 65 65 65 69 71 73 74 75 76 78 80 81 83 82 83 82 84 84 81 77 69 79 78 77 71
70 70 71 70 70 70 68 67 67 68 69 70 72 70 70 71 72 72 72 72 73 73 75 77 76 79 83 82 86 87 86 81 76 76 85 87 82 84 84 76 76 84 83
78 78 77 76 76 77 75 75 74 74 74 75 76 75 77 77 77 78 79 79 80 80 81 81 82 81 82 82 82 83 89 89 90 90 90 96 93 89 90 93 90 92 94
80 80 81 81 81 81 81 81 80 79 79 78 80 80 80 81 82 83 84 84 85 85 86 87 87 86 86 86 89 91 93 93 95 95 94 94 93 102 97 97 101 97 100
82 81 82 82 82 82 82 82 82 81 83 83 83 83 85 86 86 87 88 89 89 90 92 93 93 93 92 94 96 96 97 98 97 102 100 100 99 99 99 103 99 104 106
86 85 84 84 82 86 86 85 85 84 86 86 86 89 90 91 91 92 93 94 96 98 100 100 101 100 99 103 102 105 106 103 103 103 104 105 103 102 106 102 102 104 104
91 91 90 88 90 90 90 91 93 92 88 87 88 88 91 92 95 98 98 98 98 99 104 104 103 106 107 106 106 108 107 109 106 111 109 110 110 113 110 111 108 109 107
96 95 95 96 96 94 96 96 88 93 93 90 91 92 94 96 99 103 104 105 107 101 101 110 110 105 109 106 118 111 107 104 108 116 113 112 118 112 117 123 117 115 116
100 101 100 98 99 102 97 98 104 104 97 95 99 104 101 103 102 108 108 101 96 108 106 100 121 122 117 120 122 105 118 109 110 117 115 113 111 111 112 113 108 109 111
104 89 99 104 99 100 101 100 109 108 106 99 115 111 108 112 97 116 114 112 116 113 118 122 122 122 122 119 119 121 115 112 114 104 99 82 89 101 103 94 86 87 89
107 104 103 108 111 113 111 105 111 109 102 110 114 117 100 118 112 117 120 117 117 118 118 105 105 108 107 105 92 101 83 73 77 77 78 78 78 79 80 80 83 85 87
111 115 116 103 102 108 110 111 106 108 118 116 116 118 118 116 115 114 114 104 107 110 106 112 70 80 72 70 72 69 71 71 71 70 71 73 73 75 76 76 79 80 82
118 110 114 122 118 118 122 117 120 120 115 113 111 111 109 105 102 103 106 66 68 71 68 64 71 69 65 68 75 66 65 65 66 67 70 71 70 70 70 72 73 46 48
115 117 116 121 119 114 118 113 112 112 110 103 109 97 94 72 80 74 75 67 62 62 61 64 64 63 62 63 64 62 61 61 61 65 69 68 66 66 43 44 44 44 45
110 111 113 114 113 107 107 96 93 74 69 77 69 65 61 59 59 59 58 59 58 59 58 58 63 60 61 60 60 59 58 57 58 61 65 67 56 46 47 46 46 45 45
81 79 82 81 77 79 78 80 62 62 60 61 58 63 71 55 54 55 57 58 54 55 60 60 59 60 60 59 57 56 55 55 57 57 63 44 46 45 45 44 43 42 43
76 77 76 72 57 56 57 56 56 56 55 55 56 56 55 56 54 55 56 55 59 60 60 59 57 61 60 59 57 55 53 54 52 57 36 42 43 44 44 43 42 41 41
76 64 61 55 55 54 53 54 54 54 54 53 55 55 56 56 57 56 57 58 61 62 61 60 58 60 59 59 57 54 51 54 49 52 34 40 38 40 42 43 43 42 41
68 66 50 55 50 49 50 51 52 52 52 53 53 55 56 55 55 60 59 60 58 58 58 57 56 56 56 57 56 53 52 52 48 42 34 36 36 37 40 42 41 40 40
Wind_Direction
275 275 275 276 277 277 278 276 275 278 277 277 274 274 274 272 273 273 272 270 269 270 272 272 263 266 263 265 261 257 243 258 259 261 263 245 257 247 262 263 242 237 253
276 276 277 278 278 277 276 278 278 276 274 272 273 271 271 270 271 269 269 267 267 266 265 266 264 261 261 263 262 261 259 258 259 260 250 261 240 256 255 234 226 269 230
275 275 275 275 278 279 278 276 274 273 272 272 272 272 269 270 269 269 268 267 264 263 262 262 261 261 260 259 260 260 260 258 257 259 260 257 256 262 255 263 234 253 256
271 272 273 274 275 276 276 274 273 273 272 273 275 274 273 271 269 266 266 266 265 263 262 261 261 260 257 256 256 257 257 258 258 255 254 250 257 244 262 259 244 259 238
274 274 274 275 275 275 275 277 278 278 277 276 276 273 271 270 268 266 263 261 259 258 257 257 255 255 254 254 254 255 256 257 257 258 258 256 253 242 258 237 250 253 248
272 273 274 273 272 272 276 280 283 281 279 276 275 273 271 267 265 262 261 260 259 259 258 258 258 257 256 255 254 254 255 256 257 257 258 257 256 254 256 252 252 257 255
271 270 268 268 268 270 270 270 271 277 278 272 269 270 270 267 265 267 265 261 261 261 260 263 263 257 256 257 259 258 258 259 259 259 258 257 258 259 257 249 256 253 252
275 272 270 272 273 273 271 271 270 272 271 270 268 267 268 267 267 265 263 263 261 261 262 263 260 258 258 258 260 259 258 259 258 263 260 260 262 253 249 249 247 245 250
279 279 277 276 275 274 274 273 271 270 269 269 270 269 267 266 266 266 266 264 263 262 261 259 259 258 257 259 256 263 260 262 273 271 268 267 259 256 251 249 248 252 246
278 278 277 277 277 277 275 274 273 272 271 270 270 269 269 269 270 270 269 268 267 267 266 266 265 267 266 265 264 263 259 260 259 260 262 260 260 257 254 254 249 243 244
277 277 277 277 277 277 277 277 277 276 275 273 273 273 272 272 272 271 270 270 269 268 268 268 269 268 265 261 260 260 261 261 260 264 269 265 263 259 260 255 257 250 247
275 275 275 276 277 278 278 278 277 277 276 276 276 277 277 277 276 275 274 273 272 272 272 270 270 269 267 266 264 263 263 265 265 269 271 266 264 262 262 260 256 251 254
274 275 277 277 278 277 277 276 277 276 277 277 277 278 277 276 276 276 276 276 276 276 275 275 274 272 271 273 272 271 272 271 270 269 271 270 267 264 262 261 263 255 258
276 275 275 278 277 277 279 278 278 277 276 276 277 278 278 276 275 273 277 276 274 274 277 276 275 275 275 274 274 274 272 275 274 276 268 268 269 269 262 265 259 255 255
276 277 277 277 277 277 278 279 277 280 278 274 276 277 277 278 279 279 279 278 277 275 275 277 276 276 277 275 277 277 276 277 276 277 274 269 271 271 268 266 265 262 260
277 277 278 280 281 280 281 281 280 280 282 279 281 283 281 282 282 284 283 273 279 281 282 278 279 278 279 280 278 274 280 271 275 275 273 272 270 269 269 265 264 264 262
276 281 279 279 282 283 283 282 282 283 284 283 283 282 282 282 280 283 283 283 282 283 282 281 279 278 280 280 278 278 276 275 274 274 273 273 271 269 267 267 267 265 263
280 281 283 283 283 282 283 283 283 284 283 284 284 283 282 283 283 282 280 279 279 279 279 278 278 280 278 277 277 279 279 277 275 274 274 273 272 271 269 267 266 265 262
280 278 277 283 282 283 284 284 285 286 284 284 278 278 280 277 278 278 279 278 280 278 280 278 278 280 279 279 280 279 278 277 277 277 276 274 274 272 272 272 267 267 264
276 282 281 276 282 282 281 277 277 279 278 279 279 279 279 280 282 281 281 278 278 278 279 278 280 279 278 278 278 279 279 280 280 281 280 279 279 278 275 272 269 274 271
281 282 281 278 275 277 276 278 278 279 280 282 282 281 281 278 278 278 278 279 278 277 276 276 277 277 277 277 279 281 281 281 283 281 284 282 280 277 281 279 277 274 273
276 276 277 277 278 281 282 280 280 280 280 277 278 279 279 277 277 276 274 275 275 275 275 276 277 278 278 278 279 281 282 283 279 286 283 281 281 282 281 278 275 273 271
280 279 279 279 280 279 279 278 279 278 277 278 278 275 274 275 273 273 274 274 273 273 275 276 277 279 279 280 281 282 283 280 286 284 279 278 280 280 281 282 281 277 272
281 282 282 281 281 280 279 279 278 277 277 275 274 274 272 272 272 272 272 271 273 274 274 277 277 279 280 281 281 282 281 284 283 279 274 275 278 281 284 285 284 281 277
282 282 282 280 281 281 280 278 277 276 274 272 272 271 271 270 270 269 270 275 277 277 276 276 277 279 279 281 281 282 279 288 284 285 272 270 273 278 284 287 289 287 282
282 283 283 282 282 282 280 278 277 276 274 272 271 270 270 269 269 271 271 274 271 272 272 272 273 275 276 279 280 282 285 285 280 284 275 272 274 277 282 286 287 284 285